Location: Clatteringshaws Loch
(55.0508°N, 4.2860°W)
Time: 08:25:01
(UTC+00:00)

SR - Visible Passes

Search period start: 05 December 2016 00:00
Search period end: 15 December 2016 00:00
Orbit: 580 x 878 km, 66.7° (Epoch: 04 December)

Date Brightness Start Highest point End Pass type
(mag) Time Alt. Az. Time Alt. Az. Time Alt. Az.
05 Dec ? 17:04:16 10° SW 17:08:41 87° SE 17:13:01 12° NE visible
05 Dec ? 18:47:18 10° W 18:51:20 30° NNW 18:52:27 27° N visible
05 Dec ? 20:31:11 10° NW 20:31:53 13° NW 20:31:53 13° NW visible
06 Dec ? 17:57:21 10° WSW 18:01:37 40° NNW 18:04:26 21° NNE visible
06 Dec ? 19:41:14 10° WNW 19:43:52 20° NNW 19:43:52 20° NNW visible
07 Dec ? 17:07:37 10° WSW 17:12:02 61° NW 17:16:25 12° NE visible
07 Dec ? 18:51:11 10° WNW 18:55:02 25° NNW 18:55:50 24° N visible
07 Dec ? 20:34:49 10° NW 20:35:16 12° NW 20:35:16 12° NW visible
08 Dec ? 18:01:09 10° W 18:05:13 31° NNW 18:07:48 19° NNE visible
08 Dec ? 19:45:02 10° NW 19:47:13 19° NNW 19:47:13 19° NNW visible
09 Dec ? 17:11:13 10° WSW 17:15:31 42° NNW 17:19:45 12° NE visible
09 Dec ? 18:55:05 10° WNW 18:58:48 22° N 18:59:10 22° N visible
09 Dec ? 20:38:19 10° NW 20:38:35 11° NW 20:38:35 11° NW visible
10 Dec ? 18:05:02 10° WNW 18:08:56 25° NNW 18:11:07 19° NNE visible
10 Dec ? 19:48:41 10° NW 19:50:32 18° NNW 19:50:32 18° NNW visible
11 Dec ? 17:15:00 10° W 17:19:06 31° NNW 17:23:03 12° NE visible
11 Dec ? 18:58:53 10° NW 19:02:28 22° N 19:02:28 22° N visible
11 Dec ? 20:41:40 10° NW 20:41:54 11° NW 20:41:54 11° NW visible
12 Dec ? 16:25:04 10° WSW 16:29:24 43° NW 16:34:07 10° NE visible
12 Dec ? 18:08:55 10° WNW 18:12:41 23° N 18:14:24 19° NNE visible
12 Dec ? 19:52:11 10° NW 19:53:50 18° NNW 19:53:50 18° NNW visible
13 Dec ? 17:18:51 10° WNW 17:22:48 26° NNW 17:26:21 13° NE visible
13 Dec ? 19:02:33 10° NW 19:05:46 22° N 19:05:46 22° N visible
13 Dec ? 20:44:58 10° NW 20:45:12 11° NW 20:45:12 11° NW visible
14 Dec ? 16:28:50 10° W 16:33:00 32° NNW 16:37:30 10° NE visible
14 Dec ? 18:12:44 10° NW 18:16:30 22° N 18:17:43 20° NNE visible
14 Dec ? 19:55:34 10° NW 19:57:08 18° NNW 19:57:08 18° NNW visible
